Total_Precipitation_Accumulation
2.10 2.10 2.10 2.01 2.02 2.05 2.22 2.35 2.36 2.13 1.89 1.64 1.49 1.34 1.41 1.48 1.76 1.65 1.39 1.40 1.29 1.20 1.15 1.13 1.24 1.44 1.69 1.85 2.06 2.20 2.38 2.52 2.63 2.63 2.49 2.36 2.41 2.51
1.84 1.89 1.92 1.89 1.99 2.00 2.11 2.25 2.26 2.19 2.04 1.76 1.57 1.50 1.57 1.50 1.65 1.52 1.49 1.63 1.43 1.25 1.16 1.13 1.15 1.24 1.32 1.38 1.48 1.55 1.58 1.64 1.77 2.01 2.05 1.98 1.95 2.04
1.49 1.54 1.61 1.60 1.77 1.82 1.94 2.07 2.15 2.14 1.92 1.69 1.57 1.60 1.66 1.67 1.61 1.50 1.47 1.48 1.42 1.31 1.16 1.09 1.11 1.15 1.19 1.27 1.33 1.36 1.38 1.35 1.40 1.55 1.69 1.71 1.65 1.64
1.36 1.40 1.39 1.40 1.53 1.61 1.71 1.80 1.97 2.06 1.97 1.80 1.66 1.57 1.48 1.55 1.69 1.70 1.66 1.55 1.54 1.58 1.46 1.32 1.27 1.20 1.15 1.24 1.34 1.33 1.32 1.29 1.23 1.28 1.39 1.48 1.55 1.58
1.05 1.08 1.13 1.25 1.41 1.46 1.49 1.60 1.78 1.88 1.99 1.90 1.79 1.69 1.52 1.48 1.67 1.64 1.67 1.84 1.73 1.78 1.89 1.73 1.52 1.34 1.21 1.25 1.35 1.35 1.28 1.25 1.16 1.15 1.31 1.42 1.45 1.47
0.94 0.93 0.92 0.99 1.13 1.28 1.37 1.54 1.73 1.91 2.02 1.99 1.94 1.86 1.74 1.61 1.68 1.80 1.84 1.91 1.90 1.70 1.74 1.76 1.75 1.62 1.42 1.30 1.36 1.42 1.43 1.36 1.32 1.25 1.30 1.36 1.39 1.39
0.86 0.89 0.91 0.92 0.96 1.04 1.04 1.24 1.46 1.74 1.91 2.01 1.99 1.97 1.88 1.77 1.67 1.83 1.90 2.01 2.09 2.04 1.92 1.74 1.73 1.59 1.48 1.42 1.40 1.45 1.53 1.49 1.44 1.37 1.33 1.35 1.34 1.36
0.93 0.91 0.88 0.87 0.97 0.98 0.96 1.01 1.17 1.37 1.57 1.68 1.73 1.77 1.81 1.87 1.97 1.97 1.94 1.98 2.05 2.04 1.90 1.91 1.86 1.78 1.59 1.40 1.45 1.50 1.55 1.55 1.49 1.40 1.32 1.27 1.26 1.30
0.92 1.00 1.03 0.92 0.97 1.00 1.06 1.01 0.97 1.03 1.22 1.42 1.52 1.55 1.64 1.71 1.95 1.98 1.97 1.98 1.87 1.89 1.77 1.83 1.78 1.69 1.62 1.57 1.61 1.52 1.54 1.51 1.52 1.45 1.40 1.35 1.28 1.31
0.85 0.93 1.15 1.17 1.08 1.08 1.15 1.20 1.08 0.93 0.97 1.05 1.23 1.40 1.48 1.66 1.97 2.18 2.13 1.90 1.80 1.81 1.71 1.74 1.66 1.56 1.53 1.49 1.58 1.50 1.47 1.43 1.43 1.44 1.37 1.35 1.31 1.30
0.76 0.89 1.02 1.12 1.11 1.12 1.08 1.14 1.17 1.04 1.01 1.07 1.07 1.17 1.34 1.53 1.81 2.09 2.18 2.11 1.89 1.79 1.64 1.58 1.57 1.56 1.61 1.55 1.51 1.56 1.51 1.50 1.45 1.45 1.46 1.42 1.38 1.43
0.63 0.82 1.04 1.00 1.00 1.06 1.07 1.16 1.27 1.10 1.03 1.13 1.11 1.13 1.17 1.41 1.80 1.99 2.11 2.12 1.99 1.90 1.72 1.64 1.61 1.64 1.86 1.80 1.58 1.50 1.49 1.62 1.62 1.52 1.49 1.51 1.55 1.50
0.62 0.73 0.80 0.83 0.84 0.95 1.02 1.06 1.24 1.17 1.17 1.31 1.33 1.27 1.31 1.36 1.50 1.68 1.92 2.07 2.00 1.84 1.70 1.81 1.87 1.77 1.74 1.73 1.68 1.55 1.47 1.44 1.52 1.59 1.58 1.54 1.53 1.47
0.65 0.69 0.67 0.70 0.74 0.80 0.81 0.88 1.07 1.20 1.29 1.43 1.46 1.40 1.35 1.38 1.40 1.44 1.59 1.74 1.76 1.71 1.63 1.58 1.66 1.64 1.54 1.38 1.38 1.44 1.44 1.44 1.43 1.50 1.56 1.75 1.64 1.56
0.62 0.69 0.72 0.74 0.75 0.73 0.74 0.82 0.97 1.15 1.35 1.42 1.34 1.26 1.29 1.34 1.35 1.46 1.54 1.61 1.65 1.63 1.50 1.36 1.37 1.44 1.41 1.29 1.17 1.21 1.32 1.36 1.31 1.32 1.37 1.43 1.48 1.50
0.67 0.72 0.76 0.76 0.73 0.69 0.77 0.87 1.01 1.21 1.32 1.27 1.24 1.14 1.17 1.32 1.39 1.41 1.43 1.42 1.49 1.54 1.42 1.34 1.32 1.35 1.37 1.28 1.20 1.14 1.15 1.20 1.23 1.26 1.32 1.34 1.30 1.31
0.68 0.75 0.79 0.86 0.86 0.89 0.97 1.04 1.04 1.08 1.16 1.09 1.16 1.12 1.12 1.23 1.29 1.27 1.31 1.25 1.20 1.19 1.22 1.20 1.21 1.26 1.26 1.28 1.29 1.21 1.18 1.15 1.11 1.19 1.31 1.36 1.30 1.23
0.76 0.79 0.87 0.96 1.01 1.06 1.10 1.08 1.05 1.04 1.07 1.09 1.12 1.13 1.09 1.12 1.15 1.18 1.25 1.28 1.27 1.18 1.10 1.08 1.07 1.16 1.23 1.29 1.28 1.19 1.22 1.23 1.24 1.24 1.23 1.24 1.18 1.15
0.74 0.82 1.03 1.06 1.02 1.03 1.08 1.08 0.98 0.92 0.93 0.95 0.96 0.98 0.99 1.02 1.06 1.10 1.16 1.22 1.24 1.17 1.13 1.14 1.16 1.20 1.22 1.11 1.02 0.99 1.14 1.22 1.25 1.26 1.23 1.17 1.09 1.05
0.59 0.71 0.88 0.93 0.95 0.99 0.96 0.92 0.87 0.83 0.85 0.85 0.83 0.83 0.87 0.93 0.98 1.03 1.05 1.06 1.11 1.11 1.11 1.14 1.15 1.17 1.21 1.18 1.08 0.92 0.94 1.11 1.20 1.23 1.20 1.17 1.13 1.26
0.58 0.67 0.74 0.82 0.85 0.85 0.84 0.83 0.81 0.82 0.81 0.81 0.82 0.84 0.85 0.89 0.91 0.91 0.96 1.03 1.03 1.00 1.04 1.05 1.07 1.20 1.20 1.25 1.21 0.98 0.87 1.02 1.15 1.16 1.22 1.34 1.31 1.18
0.57 0.59 0.65 0.70 0.75 0.78 0.79 0.80 0.81 0.83 0.81 0.80 0.79 0.81 0.85 0.89 0.90 0.90 0.93 0.96 0.95 0.96 0.95 0.97 1.02 1.15 1.22 1.28 1.18 1.01 0.94 0.95 1.10 1.29 1.30 1.33 1.31 1.24
0.61 0.59 0.60 0.65 0.72 0.80 0.85 0.85 0.83 0.85 0.87 0.85 0.85 0.87 0.89 0.91 0.90 0.92 0.94 0.95 0.94 0.96 0.99 1.03 1.09 1.19 1.22 1.19 1.16 1.07 1.00 0.97 1.01 1.11 1.14 1.21 1.22 1.18